Regional Weather Roundup
Issued by NWS Upton, NY

Home | Current Version | Previous Version | Text Only | Print | Product List | Glossary On
Versions: 1 2 3 4 5 6 7 8 9 10 11 12 13 14 15 16 17 18 19 20 21 22 23 24 25 26 27 28 29 30 31 32 33 34 35 36 37 38 39 40 41 42 43 44 45 46 47 48 49 50
000
ASUS41 KOKX 012008
RWROKX

REGIONAL WEATHER ROUNDUP
NATIONAL WEATHER SERVICE NEW YORK NY
400 PM EDT SAT OCT 01 2016

NOTE: "FAIR" INDICATES FEW OR NO CLOUDS BELOW 12,000 FEET WITH NO
SIGNIFICANT WEATHER AND/OR OBSTRUCTIONS TO VISIBILITY.

NYZ071-072-176-178-NJZ106-104-012100-
NEW YORK CITY METRO AREA

CITY           SKY/WX    TMP DP  RH WIND       PRES   REMARKS
Central Park   CLOUDY    62  56  80 VRB7      30.19F
LaGuardia APRT CLOUDY    63  57  81 NE15      30.16F
Kennedy INTL   CLOUDY    62  56  80 NE14      30.17F
Newark/Liberty CLOUDY    63  57  81 NE12      30.15F
Bronx Bot Gard   N/A     61  55  82 NE5       30.18R
Wall St Helipt CLOUDY    64  59  82 NE14G20   30.17R
Teterboro      CLOUDY    62  56  80 NE7       30.16S
$$

NYZ177-179-078>081-012100-
LONG ISLAND NEW YORK

CITY           SKY/WX    TMP DP  RH WIND       PRES   REMARKS
Farmingdale    CLOUDY    61  57  87 NE13      30.16F
MacArthur/ISP  CLOUDY    60  59  96 N12       30.16F FOG
Shirley        CLOUDY    62  60  93 VRB5      30.17S
Riverhead      NOT AVBL
Westhampton    CLOUDY    63  58  83 NE10      30.18S
Southampton      N/A     64  61  88 NE7       30.13S
Bridgehampton    N/A     63  59  88 E3        30.02R
East Hampton   CLOUDY    63  58  86 NE13G20   30.16R
Montauk          N/A     63  59  87 NE8G18    30.17R
$$

NYZ052-065-067-012100-
HUDSON VALLEY

CITY           SKY/WX    TMP DP  RH WIND       PRES   REMARKS
White Plains   CLOUDY    60  55  83 NE6       30.18S
Newburgh       CLOUDY    59  57  94 E12       30.20F
Montgomery     CLOUDY    60  56  86 NE7       30.19F
Poughkeepsie   CLOUDY    59  55  87 NW3       30.19F
Albany         CLOUDY    61  51  70 CALM      30.22F
$$

NJZ001-105-106-008-010-013-015-019>022-104-012100-
NEW JERSEY

CITY           SKY/WX    TMP DP  RH WIND       PRES   REMARKS
Newark/Liberty CLOUDY    63  57  81 NE12      30.15F
Teterboro      CLOUDY    62  56  80 NE7       30.16S
Caldwell       CLOUDY    62  57  83 E7        30.16F
Morristown     CLOUDY    61  59  94 E8        30.17S
Somerville     CLOUDY    62  57  83 E5        30.14F
Linden         NOT AVBL
Sussex         CLOUDY    58  57  97 NE7       30.17F
Abdover          N/A     59  56  89 NE5       30.16F
Trenton        LGT RAIN  61  59  93 E10       30.13F
Millville      CLOUDY    66  66 100 E15       30.09F
Atlantic City  CLOUDY    64  63  96 NE15      30.09F FOG
Wrightstown    CLOUDY    63  60  92 NE8       30.10F
Toms River     CLOUDY    62  61  96 NE12      30.13F FOG
Belmar         CLOUDY    62  60  93 NE12      30.15F
$$

PAZ047>061-062-071-012100-
EASTERN PENNSYLVANIA

CITY           SKY/WX    TMP DP  RH WIND       PRES   REMARKS
Philadelphia   CLOUDY    64  60  87 E14       30.11F
Allentown      CLOUDY    62  56  80 NE10      30.13F
Scranton       CLOUDY    63  57  81 NE9       30.12F
$$

CTZ002-004>006-009-010-012-RIZ004-006-007-MAZ004-011-015-012100-
SOUTHERN NEW ENGLAND
 IN CT

CITY           SKY/WX    TMP DP  RH WIND       PRES   REMARKS
Bradley INTL   CLOUDY    55  53  93 N9        30.23R
Hartford       CLOUDY    57  55  93 N10G17    30.21S
Danbury        CLOUDY    57  54  89 NE6       30.20F
Wtrbury/Oxford CLOUDY    55  50  82 NE9G17    30.21F
Bridgeport     CLOUDY    61  54  77 NE14      30.19S
Meriden        CLOUDY    58  53  84 N8        30.20F
New Haven      CLOUDY    58  54  86 N13       30.19S
Chester        CLOUDY    59  57  94 N6        30.19S
Groton         CLOUDY    64  58  80 NE14G21   30.15S
Wilimantic     CLOUDY    59  55  87 NE10      30.20S

 IN RI

CITY           SKY/WX    TMP DP  RH WIND       PRES   REMARKS
Providence     LGT RAIN  60  57  89 NE13G23   30.20R
Block Island   CLOUDY    62  60  93 NE12G22   30.15F
Westerly       CLOUDY    64  57  78 N12G17    30.17S
 IN MA

CITY           SKY/WX    TMP DP  RH WIND       PRES   REMARKS
Boston         LGT RAIN  56  56 100 N17       30.24S VSB 1
Worcester      LGT RAIN  49  48  97 NE13G22   30.23S VSB 3/4
Westfield      CLOUDY    54  52  93 N12       30.24R
Provincetown   LGT RAIN  59  59 100 NE14G21   30.18S FOG
Nantucket      FOG       64  63  96 NE10      30.11R VSB 1/2
$$

ANZ330-335-338-340-345-350-353-355-012100-
COASTAL MARINE OBSERVATIONS


STATION/POSITION TIME  SKY/WX   TEMP    WIND        PRES    VSBY  WAVE
                                AIR SEA DIR/SP/G                  HT/PER
                 (UTC)          (F)     (DEG/KT/KT) (MB)    (MI)  (FT/S)
NY HARB ENTRANCE 1950            62 68   30/ 16/ 17 1020.4          6/ 8
20S FIRE ISLAND  1950            63 67   60/ 19/ 21 1019.8          6/ 8
GREAT SOUTH BAY  1915            61 63   10/ 10/ 14   N/A
23 SSW MONTAUK P 1950            62 64   40/ 19/ 23 1020.7          6/ 8
15 E BARNEGAT LI 1930               69                N/A           7/ 8
HUDSON CANYON    1850            67 71              1019.7          7/ 8
KINGS POINT      1942            61 68              1021.3
EXECUTION ROCKS  1945            63      50/ 14/ 19   N/A
CENTRAL LI SOUND NOT AVBL
EASTERN LI SOUND NOT AVBL
ROBBINS REEF     1942            62      60/ 11/ 14 1021.6
$$


>>>>>>>>>>>>>>>>>>>>>>>>>>>> KEY <<<<<<<<<<<<<<<<<<<<<<<<<<<
>                                                          <
>     SKY/WX - Sky Condition/Present Weather               <
>     TMP    - Temperature in Fahrenheit                   <
>     DP     - Dew Point in Fahrenheit                     <
>     RH     - Relative Humidity in Percent                <
>     WIND   - Direction (from) and Speed in MPH           <
>     PRES   - Mean Sea Level Pressure (inches of Hg)      <
>     WCI    - Wind Chill Index                            <
>     VSB    - VISIBILITY IN MILES                         <
>     HX     - HEAT INDEX                                  <
>     TC     - TEMPERATURE IN CELSIUS                      <
>     VRB    - VARIABLE WIND DIRECTION                     <
>                                                          <
>>>>>>>>>>>>>>>>>>>>>>>>>>>> KEY <<<<<<<<<<<<<<<<<<<<<<<<<<<



USA.gov is the U.S. government's official web portal to all federal, state and local government web resources and services.